Leominster, MA

12:36 AM EST on January 21, 2017 (GMT -0500)
Fitchburg

Weather History for KFIT - August, 2013

Change the Weather History Date:

Wednesday, August 21, 2013

  Actual Average (KORH) Record (KORH)
Temperature  
Mean Temperature 76 °F -  
Max Temperature 89 °F 74 °F 92 °F (1937)
Min Temperature 66 °F 56 °F 43 °F (1941)
Cooling Degree Days 12    
Growing Degree Days 26 (Base 50)    
Moisture  
Dew Point 61 °F    
Average Humidity 62    
Maximum Humidity 87    
Minimum Humidity 40    
Precipitation  
Precipitation 0.00 in - - ()
Sea Level Pressure  
Sea Level Pressure 30.11 in    
Wind  
Wind Speed 3 mph (WSW)    
Max Wind Speed 10 mph    
Max Gust Speed -    
Visibility 10 miles    
Events      
Averages and records for this station are not official NWS values.
T = Trace of Precipitation, MM = Missing Value Source: NWS Daily Summary

Daily Weather History Graph

Daily Weather History Graph

Search for Another Location

Airport or City:

Trip Planner

Search our weather history database for the weather conditions in past years. The results will help you decide how hot, cold, wet, or windy it might be!

Date:

Astronomy

Aug. 21, 2013 Rise Set
Actual Time 6:00 AM EDT 7:38 PM EDT
Civil Twilight 5:30 AM EDT 8:08 PM EDT
Nautical Twilight 4:54 AM EDT 8:44 PM EDT
Astronomical Twilight 4:15 AM EDT 9:23 PM EDT
Moon 7:43 PM EDT 6:39 AM EDT
Length of Visible Light 14h 38m
Length of Day
13h 38m
Full, 100% of the Moon is Illuminated
Aug 21
Full
Aug 28
Last Quarter
Sep 5
New
Sep 12
First Quarter
Sep 19
Full

Hourly Weather History & Observations

Time (EDT) Temp. Heat Index Dew Point Humidity Pressure Visibility Wind Dir Wind Speed Gust Speed Precip Events Conditions
12:52 AM 66.9 °F - 59.0 °F 76% 30.12 in 10.0 mi WNW 5.8 mph - N/A   Clear
1:52 AM 68.0 °F - 59.0 °F 73% 30.12 in 10.0 mi Calm Calm - N/A   Clear
2:52 AM 66.0 °F - 59.0 °F 78% 30.12 in 10.0 mi Calm Calm - N/A   Clear
3:52 AM 68.0 °F - 57.9 °F 70% 30.12 in 10.0 mi Calm Calm - N/A   Clear
4:52 AM 66.9 °F - 59.0 °F 76% 30.13 in 10.0 mi Calm Calm - N/A   Clear
5:52 AM 66.0 °F - 59.0 °F 78% 30.14 in 10.0 mi Calm Calm - N/A   Clear
6:52 AM 68.0 °F - 59.0 °F 73% 30.15 in 10.0 mi Calm Calm - N/A   Clear
7:52 AM 71.1 °F - 60.1 °F 68% 30.16 in 10.0 mi Calm Calm - N/A   Clear
8:52 AM 77.0 °F - 62.1 °F 60% 30.16 in 10.0 mi Variable 4.6 mph - N/A   Clear
9:52 AM 82.0 °F 83.1 °F 63.0 °F 52% 30.16 in 10.0 mi NW 5.8 mph - N/A   Clear
10:52 AM 82.9 °F 83.7 °F 62.1 °F 49% 30.15 in 10.0 mi Variable 5.8 mph - N/A   Clear
11:52 AM 84.9 °F 84.8 °F 60.1 °F 43% 30.14 in 10.0 mi WSW 6.9 mph - N/A   Clear
12:52 PM 86.0 °F 85.7 °F 60.1 °F 41% 30.13 in 10.0 mi Variable 4.6 mph - N/A   Clear
1:52 PM 87.1 °F 87.0 °F 61.0 °F 41% 30.11 in 10.0 mi Variable 4.6 mph - N/A   Clear
2:52 PM 87.1 °F 87.0 °F 61.0 °F 41% 30.10 in 10.0 mi WSW 5.8 mph - N/A   Clear
3:52 PM 87.1 °F 86.7 °F 60.1 °F 40% 30.08 in 10.0 mi SW 10.4 mph - N/A   Clear
4:52 PM 87.1 °F 88.3 °F 64.0 °F 46% 30.07 in 10.0 mi WSW 6.9 mph - N/A   Clear
5:52 PM 84.9 °F 86.1 °F 64.0 °F 49% 30.06 in 10.0 mi SW 5.8 mph - N/A   Clear
6:52 PM 82.0 °F 83.8 °F 64.9 °F 56% 30.05 in 10.0 mi SW 4.6 mph - N/A   Clear
7:52 PM 78.1 °F - 63.0 °F 60% 30.06 in 10.0 mi SW 4.6 mph - N/A   Clear
8:52 PM 75.0 °F - 63.0 °F 66% 30.06 in 10.0 mi Calm Calm - N/A   Clear
9:52 PM 70.0 °F - 63.0 °F 78% 30.06 in 10.0 mi Calm Calm - N/A   Clear
10:52 PM 69.1 °F - 63.0 °F 81% 30.06 in 10.0 mi Calm Calm - N/A   Clear
11:52 PM 66.9 °F - 63.0 °F 87% 30.04 in 9.0 mi Calm Calm - N/A   Clear